Location: Praha
(50.0830°N, 14.4670°E)
Time: 17:40:59
(UTC+02:00)

ISS - Pass Details

Date: 20 May 2020
Orbit: 417 x 420 km, 51.6° (Epoch: 26 May)

Event Time Altitude Azimuth Distance (km) Brightness Sun altitude
Rises 23:04:50 0° 271° (W) 2,365 0.5 -15.3°
Reaches altitude 10° 23:06:56 10° 275° (W) 1,502 -0.5 -15.5°
Maximum altitude 23:10:18 65° 358° (N) 467 -3.4 -15.7°
Drops below altitude 10° 23:13:39 10° 81° (E) 1,504 -1.1 -16.0°
Enters shadow 23:14:13 - 82° (E) 1,736 -0.8 -16.0°
